Regional Weather Roundup
Issued by NWS

Home | Current Version | Previous Version | Graphics & Text | Print | Product List | Glossary On
Versions: 1 2 3 4 5 6 7 8 9 10 11 12 13 14 15 16 17 18 19 20 21 22 23 24 25 26 27 28 29 30 31 32 33 34 35 36 37 38 39 40 41 42 43 44 45 46 47 48 49 50
000
ASUS44 KMEG 041600
RWRTN
TENNESSEE HOURLY STATE WEATHER ROUNDUP
NATIONAL WEATHER SERVICE MEMPHIS TN
1100 AM CDT WED MAY 04 2016

TNZ002-004-019-021-049-052-054-088>092-041700-
WEST TENNESSEE

CITY           SKY/WX    TMP DP  RH WIND       PRES   REMARKS
MEMPHIS INTL   SUNNY     71  50  47 W12G23    29.85F
NWS MEMPHIS      N/A     69 N/A N/A MISG        N/A
JACKSON        SUNNY     69  49  48 W16G23    29.81F
DYERSBURG      SUNNY     70  52  52 W13G21    29.78F
UNION CITY     PTSUNNY   66  52  59 SW9       29.75F
LEXINGTON      SUNNY     70  45  40 SW14      29.80F
$$

TNZ008-025-027-028-033-062-065-066-041700-
NORTH MIDDLE TENNESSEE

CITY           SKY/WX    TMP DP  RH WIND       PRES   REMARKS
NASHVILLE      MOSUNNY   68  45  43 SW8       29.79F
CLARKSVILLE    CLOUDY    63  46  54 W7        29.75F
COOKEVILLE     SUNNY     64  45  48 SW8       29.79F
CROSSVILLE     MOSUNNY   61  41  47 W13G21    29.82S
$$

TNZ061-075-076-078-094-096-097-041700-
SOUTH MIDDLE TENNESSEE

CITY           SKY/WX    TMP DP  RH WIND       PRES   REMARKS
TULLAHOMA      MOSUNNY   64  45  48 N9        29.82F
WINCHESTER     SUNNY     63  45  51 W10       29.83F
MCMINNVILLE    SUNNY     64  45  48 W8        29.81F
COLUMBIA       SUNNY     68  48  49 W10       29.79F
SHELBYVILLE    MOSUNNY   68  48  49 W12       29.82F
$$

TNZ017-018-042-046-047-041700-
NORTHEAST TENNESSEE

CITY           SKY/WX    TMP DP  RH WIND       PRES   REMARKS
TRI CITIES     PTSUNNY   61  43  51 VRB7      29.77F
$$

TNZ012-013-036-069-073-074-041700-
CENTRAL EAST TENNESSEE

CITY           SKY/WX    TMP DP  RH WIND       PRES   REMARKS
KNOXVILLE      MOSUNNY   62  40  44 SW12G17   29.79F
OAK RIDGE      SUNNY     66  41  40 W9        29.79F
GATLINBURG     PTSUNNY   63  43  48 VRB5      29.79F
$$

TNZ083-085-099-041700-
SOUTHEAST TENNESSEE

CITY           SKY/WX    TMP DP  RH WIND       PRES   REMARKS
CHATTANOOGA    MOSUNNY   66  41  40 W10       29.82F
$$

SKY/WX REPORTED AS FAIR MEANS FEW OR NO CLOUDS BELOW
12 THOUSAND FEET.





USA.gov is the U.S. government's official web portal to all federal, state and local government web resources and services.